{"data":{"norad_id":62752,"intl_designator":"2025-014T","name":"STARLINK-32756","alt_names":[],"object_type":"PAYLOAD","status":"ACTIVE","operator":null,"country":"US","launch_date":"2025-01-21","launch_site_code":"AFETR","launch_vehicle":null,"mission":null,"orbit_class":"UNKNOWN","rcs_meters":null,"size_class":null,"mass_kg":null,"dimensions":null,"purposes":["comms"],"wikipedia_slug":null,"has_3d_model":false,"image_url":null,"decayed_at":null,"tle_current":{"epoch":"2026-09-21T00:06:59.717376Z","epoch_age_seconds":127714,"freshness":"FRESH","line1":"1 62752U 25014T   26264.00485784  .00005830  00000+0  22122-3 0  9997","line2":"2 62752  43.0053 131.7492 0001469 274.1425  85.9259 15.27581553 93126","mean_motion":15.27581553,"eccentricity":0.0001469,"inclination_deg":43.0053,"raan_deg":131.7492,"arg_perigee_deg":274.1425,"mean_anomaly_deg":85.9259,"bstar":0.00022122,"rev_number":9312,"period_min":94.266652878336,"perigee_km":482.03653824852,"apogee_km":484.05235335729,"semimajor_km":6861.1814458029,"source":"CELESTRAK","updated_at":"2026-09-22T09:00:49.659403Z"}}}